Regional Weather Roundup
Issued by NWS

Home | Current Version | Previous Version | Text Only | Print | Product List | Glossary Off
Versions: 1 2 3 4 5 6 7 8 9 10 11 12 13 14 15 16 17 18 19 20 21 22 23 24 25 26 27 28 29 30 31 32 33 34 35 36 37 38 39 40 41 42 43 44 45 46 47 48 49 50

396
ASUS44 KJAN 191603
RWRMS

MISSISSIPPI HOURLY WEATHER ROUNDUP
NATIONAL WEATHER SERVICE JACKSON MS
1100 AM CDT FRI SEP 19 2014

NOTE: "FAIR: INDICATES FEW OR NO CLOUDS BELOW 12,000 FEET WITH NO
SIGNIFICANT WEATHER AND/OR OBSTRUCTIONS TO VISIBILITY.

MSZ001>002-007>008-010>013-018>021-025>028-034>036-191700-
NORTHWEST MISSISSIPPI

CITY           SKY/WX    TMP DP  RH WIND       PRES   REMARKS
CLARKSDALE     CLOUDY    75  73  94 SE3       30.05S
CLEVELAND      FAIR      78  71  78 SE8       30.03S
GREENWOOD      SUNNY     80  67  64 E7        30.03S
GREENVILLE     MOSUNNY   81  67  62 VRB7      30.02R
GRENADA        FAIR      77  68  73 CALM      30.04F
OXFORD         FAIR      75  66  73 S5        30.07S
TUNICA         MOSUNNY   75  68  78 S5        30.06R
$$

MSZ003>006-009-014>017-022>024-029>033-037>039-191700-
NORTHEAST MISSISSIPPI

CITY           SKY/WX    TMP DP  RH WIND       PRES   REMARKS
COLUMBUS AFB   SUNNY     80  67  65 E6        30.04S
CORINTH        FAIR      79  64  61 SE6       30.05S
GOLDN TRIANGLE MOSUNNY   79  66  65 E5        30.04S
STARKVILLE     FAIR      79  68  69 E5        30.04S
TUPELO           N/A     77  67  71 CALM      30.05S
$$

MSZ040-058-191700-
CENTRAL MISSISSIPPI

CITY           SKY/WX    TMP DP  RH WIND       PRES   REMARKS
JACKSON INTL   MOSUNNY   82  68  62 VRB5      30.01S
JACKSON HAWKNS SUNNY     82  68  62 E5        30.02S
MERIDIAN KEY   SUNNY     82  66  58 E7        30.01F
MERIDIAN NAS   MOSUNNY   82  68  62 NE3       30.02F
RAYMOND        FAIR      81  75  83 SE6       30.01S
VICKSBURG      SUNNY     82  67  60 SE7       30.01S
$$

MSZ059>079-191700-
SOUTH MISSISSIPPI

CITY           SKY/WX    TMP DP  RH WIND       PRES   REMARKS
BROOKHAVEN     PTSUNNY   81  70  69 E6        30.03S
COLUMBIA       FAIR      81  72  74 SE6       29.99S
HATTIESBURG    SUNNY     81  69  67 E3        30.01R
MCCOMB         MOSUNNY   80  68  66 VRB5      30.01R
NATCHEZ        SUNNY     81  72  74 SE8       30.01R
PINE BELT      SUNNY     81  66  61 SE5       30.02S
$$

MSZ080>082-191700-
COASTAL MISSISSIPPI

CITY           SKY/WX    TMP DP  RH WIND       PRES   REMARKS
BAY ST LOUIS   MOSUNNY   79  70  73 CALM      29.99R
BILOXI         PTSUNNY   79  72  78 E5        29.99R
PASCAGOULA     PTSUNNY   80  71  74 E5        29.99R
GULFPORT       PTSUNNY   80  71  74 NE6       29.98R
$$



USA.gov is the U.S. government's official web portal to all federal, state and local government web resources and services.